EWG5HJ LIMJ-LOWS

Flight info

Callsign EWG5HJ
Flight time N/A
Altitude 38000
Route GEN DCT PIA DCT BSM DCT TNT DCT OZE/N0451F370 DCT INN DCT TOBAD DCT TRAUN TRAUN2R
Aircraft A319/M-SDE3FGHIRWY/LB1

Departure

Time 2026-04-21 13:38
Airport Genoa Cristoforo Colombo Airport (LIMJ)

Arrival

Time N/A
Airport Salzburg Airport (LOWS)
Time Latitude Longitude Altitude Speed Heading
2026-04-21 13:24 44.41540 8.84950 29 ft 0 kts 105°
2026-04-21 13:29 44.41544 8.84932 29 ft 2 kts 105°
2026-04-21 13:30 44.41548 8.84912 29 ft 2 kts 105°
2026-04-21 13:30 44.41555 8.84894 29 ft 2 kts 144°
2026-04-21 13:30 44.41569 8.84886 29 ft 2 kts 179°
2026-04-21 13:30 44.41584 8.84891 29 ft 2 kts 213°
2026-04-21 13:31 44.41594 8.84906 29 ft 2 kts 234°
2026-04-21 13:31 44.41604 8.84922 29 ft 2 kts 228°
2026-04-21 13:31 44.41611 8.84933 29 ft 0 kts 230°
2026-04-21 13:33 44.41610 8.84932 29 ft 0 kts 230°
2026-04-21 13:33 44.41595 8.84907 29 ft 8 kts 230°
2026-04-21 13:34 44.41534 8.84800 29 ft 19 kts 232°
2026-04-21 13:34 44.41458 8.84665 28 ft 12 kts 232°
2026-04-21 13:34 44.41401 8.84699 28 ft 12 kts 106°
2026-04-21 13:34 44.41378 8.84823 28 ft 13 kts 105°
2026-04-21 13:35 44.41339 8.84945 28 ft 14 kts 152°
2026-04-21 13:35 44.41241 8.84918 28 ft 14 kts 197°
2026-04-21 13:35 44.41148 8.84878 28 ft 12 kts 205°
2026-04-21 13:35 44.41081 8.84846 28 ft 9 kts 161°
2026-04-21 13:36 44.41049 8.84935 28 ft 13 kts 105°
2026-04-21 13:36 44.41014 8.85114 28 ft 24 kts 104°
2026-04-21 13:36 44.40961 8.85389 29 ft 29 kts 103°
2026-04-21 13:36 44.40908 8.85665 29 ft 28 kts 105°
2026-04-21 13:37 44.40865 8.85885 29 ft 14 kts 95°
2026-04-21 13:37 44.40876 8.86015 29 ft 11 kts 121°
2026-04-21 13:37 44.40847 8.85989 29 ft 7 kts 275°
2026-04-21 13:37 44.40858 8.85902 29 ft 15 kts 284°
2026-04-21 13:38 44.40946 8.85453 29 ft 84 kts 285°
2026-04-21 13:38 44.41167 8.84339 27 ft 148 kts 283°
2026-04-21 13:38 44.41447 8.82912 544 ft 154 kts 284°
2026-04-21 13:38 44.41730 8.81478 1187 ft 156 kts 285°
2026-04-21 13:39 44.42004 8.79992 1810 ft 159 kts 285°
2026-04-21 13:39 44.42270 8.78425 2270 ft 172 kts 285°
2026-04-21 13:39 44.42550 8.76732 2721 ft 183 kts 285°
2026-04-21 13:39 44.42829 8.75027 3331 ft 184 kts 285°
2026-04-21 13:40 44.43115 8.73257 3968 ft 186 kts 285°
2026-04-21 13:40 44.43397 8.71508 4581 ft 190 kts 284°
2026-04-21 13:40 44.43881 8.69711 5067 ft 201 kts 311°
2026-04-21 13:40 44.45082 8.68723 5504 ft 215 kts 355°
2026-04-21 13:41 44.46610 8.69067 6007 ft 232 kts 28°
2026-04-21 13:41 44.47804 8.70699 6511 ft 252 kts 58°
2026-04-21 13:41 44.48736 8.72947 7074 ft 271 kts 58°
2026-04-21 13:41 44.49737 8.75233 7788 ft 282 kts 57°
2026-04-21 13:42 44.50779 8.77579 8653 ft 287 kts 56°
2026-04-21 13:42 44.51844 8.79979 9500 ft 293 kts 56°
2026-04-21 13:42 44.52929 8.82433 10270 ft 299 kts 56°
2026-04-21 13:42 44.54051 8.84976 10781 ft 315 kts 56°
2026-04-21 13:43 44.55248 8.87686 11230 ft 333 kts 56°
2026-04-21 13:43 44.56471 8.90468 11835 ft 342 kts 55°
2026-04-21 13:43 44.57745 8.93377 12616 ft 347 kts 55°
2026-04-21 13:43 44.58998 8.96236 13376 ft 351 kts 55°
2026-04-21 13:44 44.60310 8.99234 14100 ft 355 kts 55°
2026-04-21 13:44 44.61619 9.02229 14826 ft 359 kts 54°
2026-04-21 13:44 44.62933 9.05242 15524 ft 363 kts 54°
2026-04-21 13:44 44.64266 9.08297 16207 ft 367 kts 53°
2026-04-21 13:45 44.65607 9.11375 16863 ft 372 kts 53°
2026-04-21 13:45 44.66974 9.14512 17500 ft 376 kts 53°
2026-04-21 13:45 44.68346 9.17666 18143 ft 379 kts 52°
2026-04-21 13:45 44.69732 9.20857 18773 ft 383 kts 52°
2026-04-21 13:46 44.71114 9.24041 19363 ft 387 kts 52°
2026-04-21 13:46 44.72542 9.27333 19954 ft 391 kts 52°
2026-04-21 13:46 44.73985 9.30665 20525 ft 396 kts 51°
2026-04-21 13:46 44.75431 9.34005 21088 ft 400 kts 51°
2026-04-21 13:47 44.76902 9.37414 21651 ft 404 kts 51°
2026-04-21 13:47 44.78385 9.40853 22209 ft 407 kts 50°
2026-04-21 13:47 44.79879 9.44320 22725 ft 411 kts 50°
2026-04-21 13:47 44.81384 9.47816 23215 ft 415 kts 50°
2026-04-21 13:48 44.82899 9.51338 23737 ft 418 kts 50°
2026-04-21 13:48 44.84432 9.54901 24275 ft 421 kts 50°
2026-04-21 13:48 44.85985 9.58517 24766 ft 425 kts 50°
2026-04-21 13:48 44.87516 9.62089 25255 ft 428 kts 50°
2026-04-21 13:49 44.89055 9.65690 25723 ft 432 kts 51°
2026-04-21 13:49 44.90723 9.69391 26166 ft 430 kts 46°
2026-04-21 13:49 44.91331 9.70541 26312 ft 429 kts 44°